This is the latest recevied weather packets stored in our database for station/object W4GAP. If no packets are shown the sender has not sent any weather packets the latest 10 day(s).
| Time | Temp. | Humidity | Pressure | Rain* | Wind** | Luminosity | Snow |
|---|---|---|---|---|---|---|---|
| 1777578857 | 21.11° C | 64% | 1008.7 hPa | 0 mm | - | 92 W/m² | - |
| 1777578553 | 21.11° C | 64% | 1008.5 hPa | 0 mm | - | 88 W/m² | - |
| 1777578248 | 21.67° C | 63% | 1008.6 hPa | 0 mm | - | 92 W/m² | - |
| 1777577944 | 21.67° C | 61% | 1008.6 hPa | 0 mm | - | 100 W/m² | - |
| 1777577639 | 21.67° C | 63% | 1008.6 hPa | 0 mm | - | 110 W/m² | - |
| 1777577337 | 21.11° C | 63% | 1008.5 hPa | 0 mm | - | 146 W/m² | - |
| 1777577032 | 21.11° C | 63% | 1008.4 hPa | 0 mm | - | 127 W/m² | - |
| 1777576730 | 21.67° C | 59% | 1008.2 hPa | 0 mm | - | 136 W/m² | - |
| 1777576428 | 21.67° C | 62% | 1008.3 hPa | 0 mm | - | 162 W/m² | - |
| 1777576126 | 21.67° C | 63% | 1008.3 hPa | 0 mm | - | 144 W/m² | - |
| 1777575821 | 21.67° C | 60% | 1008.2 hPa | 0 mm | - | 180 W/m² | - |
| 1777575518 | 21.67° C | 61% | 1008.2 hPa | 0 mm | - | 206 W/m² | - |
| 1777575213 | 22.22° C | 60% | 1008.1 hPa | 0 mm | - | 426 W/m² | - |
| 1777574910 | 22.22° C | 58% | 1008 hPa | 0 mm | - | 444 W/m² | - |
| 1777574606 | 21.67° C | 61% | 1008.4 hPa | 0 mm | - | 515 W/m² | - |
| 1777574303 | 21.11° C | 61% | 1008.2 hPa | 0 mm | - | 551 W/m² | - |
| 1777573998 | 21.11° C | 59% | 1008.2 hPa | 0 mm | - | 503 W/m² | - |
| 1777573693 | 21.11° C | 60% | 1008.3 hPa | 0 mm | - | 513 W/m² | - |
| 1777573390 | 20.56° C | 64% | 1008.2 hPa | 0 mm | - | 298 W/m² | - |
| 1777573085 | 20.56° C | 60% | 1008.4 hPa | 0 mm | - | 309 W/m² | - |
| 1777572783 | 20.56° C | 62% | 1008.5 hPa | 0 mm | - | 265 W/m² | - |
| 1777572483 | 20.56° C | 63% | 1008.5 hPa | 0 mm | - | 253 W/m² | - |
| 1777572179 | 20.56° C | 64% | 1008.7 hPa | 0 mm | - | 255 W/m² | - |
| 1777571874 | 20.56° C | 63% | 1008.6 hPa | 0 mm | - | 281 W/m² | - |
| 1777571570 | 20.56° C | 66% | 1008.5 hPa | 0 mm | - | 249 W/m² | - |
* Rain latest hour (hover to see other rain measurements)
** Current wind speed in m/s (hover to see current wind gust speed)